This is the latest recevied weather packets stored in our database for station/object KB1JLI. If no packets are shown the sender has not sent any weather packets the latest 10 day(s).
| Time | Temp. | Humidity | Pressure | Rain* | Wind** | Luminosity | Snow |
|---|---|---|---|---|---|---|---|
| 1778065921 | 16.67° C | 80% | 1009.9 hPa | 0 mm | - | 97 W/m² | - |
| 1778065618 | 16.11° C | 80% | 1010.3 hPa | 0 mm | - | 83 W/m² | - |
| 1778065315 | 16.11° C | 81% | 1010.1 hPa | 0 mm | - | 71 W/m² | - |
| 1778065012 | 16.11° C | 81% | 1010.3 hPa | 0 mm | - | 53 W/m² | - |
| 1778064708 | 16.11° C | 81% | 1010.1 hPa | 0 mm | - | 41 W/m² | - |
| 1778064407 | 16.11° C | 82% | 1010 hPa | 0 mm | - | 25 W/m² | - |
| 1778064104 | 16.11° C | 81% | 1010.1 hPa | 0 mm | - | 21 W/m² | - |
| 1778063801 | 16.11° C | 81% | 1010.3 hPa | 0 mm | - | 22 W/m² | - |
| 1778063498 | 16.11° C | 81% | 1010.2 hPa | 0 mm | - | 19 W/m² | - |
| 1778063196 | 16.11° C | 81% | 1010.3 hPa | 0 mm | - | 15 W/m² | - |
| 1778062893 | 16.11° C | 81% | 1010.1 hPa | 0 mm | - | 15 W/m² | - |
| 1778062590 | 16.11° C | 81% | 1010.1 hPa | 0 mm | - | 16 W/m² | - |
| 1778062287 | 16.11° C | 80% | 1010 hPa | 0 mm | - | 19 W/m² | - |
| 1778061985 | 16.11° C | 80% | 1010 hPa | 0 mm | - | 21 W/m² | - |
| 1778061683 | 16.11° C | 80% | 1010 hPa | 0 mm | - | 18 W/m² | - |
| 1778061382 | 16.11° C | 80% | 1009.9 hPa | 0 mm | - | 13 W/m² | - |
| 1778061077 | 16.11° C | 79% | 1009.8 hPa | 0 mm | - | 12 W/m² | - |
| 1778060775 | 16.11° C | 80% | 1009.9 hPa | 0 mm | - | 9 W/m² | - |
| 1778060472 | 16.11° C | 79% | 1010 hPa | 0 mm | - | 7 W/m² | - |
| 1778060171 | 16.11° C | 79% | 1010.1 hPa | 0 mm | - | 4 W/m² | - |
| 1778059868 | 16.11° C | 79% | 1009.9 hPa | 0 mm | - | 2 W/m² | - |
| 1778059566 | 16.11° C | 79% | 1010.1 hPa | 0 mm | - | 1 W/m² | - |
| 1778059262 | 16.67° C | 78% | 1010 hPa | 0 mm | - | 0 W/m² | - |
| 1778058961 | 16.67° C | 78% | 1010.1 hPa | 0 mm | - | 0 W/m² | - |
| 1778058658 | 16.11° C | 78% | 1010 hPa | 0 mm | - | 0 W/m² | - |
* Rain latest hour (hover to see other rain measurements)
** Current wind speed in m/s (hover to see current wind gust speed)